Location: *
(50.9167°S, 179.4000°W)
Time: 11:26:27
(UTC+00:00)

ATLAS 2AS CENTAUR R/B - Visible Passes

Search period start: 18 June 2024 00:00
Search period end: 28 June 2024 00:00
Orbit: 1017 x 1194 km, 63.7° (Epoch: 17 June)

Date Brightness Start Highest point End Pass type
(mag) Time Alt. Az. Time Alt. Az. Time Alt. Az.
18 Jun 4.3 15:33:13 27° SSE 15:33:13 27° SSE 15:36:51 10° SE visible
18 Jun 3.9 17:20:38 25° SSW 17:23:03 30° S 17:29:25 10° ESE visible
18 Jun 3.5 19:08:41 10° SW 19:15:41 48° SSE 19:22:53 10° ENE visible
19 Jun 4.8 14:49:41 19° SE 14:49:41 19° SE 14:51:43 10° SE visible
19 Jun 3.9 16:37:06 30° S 16:37:30 30° S 16:43:48 10° ESE visible
19 Jun 3.7 18:24:31 14° SW 18:30:19 40° SSE 18:37:16 10° E visible
20 Jun 5.3 14:06:08 12° SE 14:06:08 12° SE 14:06:38 10° SE visible
20 Jun 4.2 15:53:33 28° SSE 15:53:33 28° SSE 15:58:20 10° SE visible
20 Jun 3.9 17:40:59 21° SSW 17:44:53 34° SSE 17:51:33 10° E visible
21 Jun 4.6 15:10:01 23° SSE 15:10:01 23° SSE 15:13:00 10° SE visible
21 Jun 3.9 16:57:26 27° SSW 16:59:22 31° S 17:05:49 10° ESE visible
21 Jun 3.4 18:44:52 11° SW 18:51:51 55° SE 18:59:11 10° ENE visible
22 Jun 5.1 14:26:29 15° SE 14:26:29 15° SE 14:27:47 10° SE visible
22 Jun 4.0 16:13:54 30° S 16:13:54 30° S 16:20:09 10° ESE visible
22 Jun 3.6 18:01:19 18° SW 18:06:33 44° SSE 18:13:39 10° E visible
23 Jun 4.4 15:30:22 26° SSE 15:30:22 26° SSE 15:34:36 10° SE visible
23 Jun 3.8 17:17:47 25° SSW 17:21:09 37° SSE 17:27:59 10° E visible
23 Jun 3.0 19:05:43 10° SW 19:13:04 82° SE 19:20:37 10° NE visible
24 Jun 4.9 14:46:51 19° SE 14:46:51 19° SE 14:49:10 10° SE visible
24 Jun 3.9 16:34:16 30° S 16:35:41 33° SSE 16:42:14 10° ESE visible
24 Jun 3.2 18:21:42 15° SW 18:27:57 63° SE 18:35:25 10° ENE visible
25 Jun 5.3 14:03:20 12° SE 14:03:20 12° SE 14:03:54 10° SE visible
25 Jun 4.1 15:50:46 30° SSE 15:50:46 30° SSE 15:56:32 10° ESE visible
25 Jun 3.5 17:38:12 23° SSW 17:42:44 50° SSE 17:49:59 10° ENE visible
26 Jun 4.6 15:07:16 24° SSE 15:07:16 24° SSE 15:10:54 10° ESE visible
26 Jun 3.7 16:54:42 31° SSW 16:57:23 41° SSE 17:04:22 10° E visible
26 Jun 2.9 18:42:07 12° SW 18:49:05 85° NW 18:56:38 10° NE visible
27 Jun 5.1 14:23:48 16° SE 14:23:48 16° SE 14:25:24 10° SE visible
27 Jun 3.9 16:11:13 34° S 16:11:57 35° SSE 16:18:40 10° E visible
27 Jun 3.0 17:58:39 20° SW 18:04:03 73° SE 18:11:34 10° NE visible
